Location: ????????
(38.4362°N, 22.8767°E)
Time: 11:00:19
(UTC+00:00)

UNK - Pass Details

Date: 23 April 2024
Orbit: 661 x 679 km, 98.3° (Epoch: 19 May)

Event Time Altitude Azimuth Distance (km) Brightness Sun altitude
Exits shadow 01:31:47 48° 165° (SSE) 873 4.1 -23.1°
Maximum altitude 01:33:04 89° 89° (E) 677 3.6 -22.9°
Drops below altitude 10° 01:37:42 10° 347° (NNW) 2,114 6.6 -22.2°
Sets 01:39:56 0° 348° (NNW) 3,035 7.4 -21.9°
